Volver al catálogo

STARLINK-3160

ActivoComunicacionesVLEO
NORAD 49454·PAYLOAD·🇺🇸 United States

Lanzado Nov 13, 2021 desde Cape Canaveral Space Force Station

Loading…

Próximos Pases (próximas 24 horas)

TLE

ActualizadoSource: CelesTrak SupGP

Época: Sep 14, 2026, 21:44 UTC

1 49454C 21104AY  26257.90604167  .00040546  00000+0  11986-2 0  2571
2 49454  53.1594  77.5252 0001254  84.3310 343.6815 15.34354512    18

Sigue STARLINK-3160 en tiempo real con AllMySat

Download on the App Store